Location: Unspecified
(0.0000°N, 0.0000°E)
Time: 03:51:05
(UTC+00:00)

Vanguard 1 - Pass Details

Date: 12 December 2023
Orbit: 653 x 3826 km, 34.3° (Epoch: 22 February)

Event Time Altitude Azimuth Distance (km) Brightness Sun altitude
Rises 21:40:37 0° 317° (NW) 7,223 14.5 -50.2°
Reaches altitude 10° 21:45:32 10° 323° (NW) 6,491 14.2 -51.2°
Enters shadow 21:52:50 26° 336° (NNW) 5,528 13.6 -52.6°
Maximum altitude 22:07:12 48° 33° (NNE) 4,475 - -55.3°
Drops below altitude 10° 22:26:35 10° 102° (ESE) 5,966 - -58.6°
Sets 22:30:44 0° 108° (ESE) 6,640 - -59.3°
